GFSNE_700_spd_000.txt.gz
Wind_Speed
14 12 13 14 15 15 16 18 20 22 20 17 19 23 20 21 22 24 25 27 27 30 32 34 34 35 36 36 37 37 39 41 44 47 48 48 46 43
16 14 13 14 14 15 17 21 23 22 22 21 23 26 26 25 26 25 24 26 28 29 32 34 37 39 40 40 39 39 39 40 41 45 49 51 50 49
15 14 14 15 16 17 17 22 24 25 23 18 24 27 30 34 29 28 29 30 29 30 32 35 36 36 40 41 43 44 43 43 43 43 47 50 53 52
15 13 15 18 16 17 21 22 23 26 27 32 22 26 32 35 36 32 30 32 33 32 31 33 35 35 38 40 42 45 47 46 45 46 46 48 52 54
14 15 16 20 17 19 22 23 25 30 30 32 30 31 29 33 33 32 33 31 33 34 36 35 35 36 36 37 36 40 44 51 49 48 49 49 50 54
18 19 19 21 21 24 26 27 31 33 29 29 29 27 33 31 27 31 28 28 32 33 34 34 34 35 39 42 44 45 44 45 53 52 51 51 51 53
23 22 23 26 28 30 32 30 32 33 32 32 30 30 37 33 28 33 35 32 36 33 36 37 38 37 36 41 43 45 48 49 50 56 53 54 54 54
28 26 29 29 30 30 32 32 33 36 35 33 34 36 37 33 31 34 39 39 38 35 39 40 40 39 40 42 49 50 54 56 56 56 57 55 55 56
32 33 32 31 32 30 30 32 35 36 35 35 38 38 36 37 36 38 38 38 40 37 41 41 43 46 46 50 56 52 52 54 56 59 57 56 57 57
33 35 38 37 37 27 29 35 37 36 37 36 39 42 40 36 35 38 39 41 41 40 40 45 48 51 52 59 58 47 45 48 53 59 57 55 56 57
36 44 42 42 39 28 31 36 37 37 37 38 37 39 36 34 37 41 39 42 43 42 38 46 50 52 61 52 34 32 35 41 45 54 53 50 52 56
37 48 40 34 32 29 34 37 38 36 36 35 38 35 32 33 34 37 38 40 41 43 40 47 48 54 60 37 25 24 28 33 39 46 49 48 49 56
44 40 35 29 34 34 36 37 36 35 36 34 30 28 31 33 34 35 35 38 41 44 39 44 47 54 53 44 27 25 24 22 29 38 48 49 50 55
35 35 33 34 34 33 35 35 35 35 34 30 28 30 32 33 34 35 35 37 39 39 39 37 46 54 53 43 36 22 22 19 16 29 34 40 46 51
31 31 33 33 32 35 33 33 34 34 31 28 27 31 32 33 33 33 34 33 32 29 31 35 43 45 44 32 30 20 20 14 21 21 26 35 41 47
30 30 31 33 33 32 33 32 32 27 21 24 26 30 31 31 31 30 30 29 27 22 25 32 39 43 36 22 20 21 20 12 22 22 27 31 35 40
27 29 31 30 29 30 29 29 21 18 21 25 29 31 31 30 29 28 28 25 24 25 29 35 39 35 33 20 19 22 24 14 15 21 25 29 34 37
26 30 31 30 28 27 25 23 23 25 29 30 29 29 29 28 26 25 24 22 24 25 28 34 36 36 31 19 14 20 19 13 14 20 25 29 33 36
26 29 25 25 24 25 25 26 26 28 29 29 26 26 26 24 22 22 22 21 21 21 24 29 33 36 29 22 19 16 17 18 21 16 23 29 31 35
25 22 21 22 23 23 23 24 24 26 26 25 24 23 21 19 18 19 21 21 20 19 23 27 30 35 36 29 29 19 19 17 15 18 17 24 30 35
24 22 22 23 22 21 20 21 22 23 23 22 19 17 16 15 16 17 19 19 20 20 21 18 27 28 35 26 19 19 17 15 15 17 15 17 22 32
21 22 23 23 19 20 19 20 20 20 19 16 14 13 12 13 15 16 16 17 17 16 15 21 25 27 30 27 22 17 13 10 15 17 17 15 18 31
22 22 21 19 19 19 19 18 17 16 14 12 11 11 12 12 14 15 15 15 16 15 15 15 17 21 30 29 26 23 15 9 10 16 20 14 15 28

GFSNE_700_spd_003.txt.gz
Wind_Speed
15 13 12 12 11 12 14 9 13 14 13 13 17 19 25 21 20 18 21 23 24 27 29 29 30 31 32 34 36 35 35 36 37 39 40 43 45 44
15 13 11 9 11 13 15 11 15 16 16 15 16 20 24 25 24 25 22 25 27 27 29 33 33 34 35 35 37 39 39 38 37 38 39 40 44 46
15 14 11 10 12 14 11 13 17 17 17 18 22 26 29 29 31 32 33 33 30 30 31 30 31 36 37 37 37 38 41 41 40 40 40 40 42 44
19 16 14 14 14 13 13 18 20 24 25 26 26 25 26 27 31 32 33 34 31 30 30 32 33 34 36 37 38 37 39 41 42 42 42 43 44 44
19 17 16 15 13 11 14 17 22 27 27 29 28 25 21 26 29 33 34 31 30 29 34 31 33 30 29 33 36 39 38 40 41 41 44 45 46 47
23 21 19 21 22 21 20 23 25 27 30 29 33 33 33 28 27 32 35 29 35 31 30 34 35 35 32 32 36 36 36 39 42 44 46 49 48 49
25 25 22 24 26 25 27 29 24 28 31 32 34 35 32 27 32 34 34 33 35 30 38 36 37 37 37 38 36 35 36 39 42 45 49 52 54 50
29 29 29 28 29 31 31 35 35 32 29 32 32 34 34 35 33 33 36 39 40 37 38 40 38 38 39 39 36 35 37 42 48 55 57 56 56 55
33 30 33 28 30 33 35 39 40 35 28 31 34 35 36 35 36 37 37 37 37 37 39 41 38 39 36 36 36 38 38 50 57 60 62 61 59 58
35 33 35 31 35 36 44 45 41 38 33 34 37 36 35 37 39 38 34 34 35 35 36 37 37 38 37 40 41 40 47 54 52 55 58 58 59 62
36 35 36 36 38 38 42 31 31 34 33 38 39 34 35 36 32 31 32 35 36 36 31 35 39 40 43 45 44 40 53 55 46 51 53 50 50 53
32 30 30 33 37 35 33 31 37 36 37 36 36 36 35 30 27 30 34 37 39 39 33 39 41 40 45 41 45 55 56 44 40 45 44 44 45 51
26 28 32 30 33 30 31 35 36 36 36 34 33 33 32 31 32 36 37 38 41 39 33 36 35 32 40 48 54 49 42 28 35 36 35 34 41 47
30 34 36 31 30 33 34 34 33 34 32 32 33 31 28 27 30 33 34 36 36 34 30 26 26 33 42 49 55 44 28 23 26 27 28 26 36 41
30 30 30 30 34 34 33 33 32 30 30 30 27 23 25 28 30 32 32 32 31 28 26 21 27 35 38 46 54 47 34 19 23 24 28 27 27 33
27 27 28 31 34 34 36 32 30 28 27 22 20 24 29 31 31 32 30 29 28 23 22 23 28 33 36 42 44 45 35 31 22 23 12 21 20 26
23 26 26 29 32 35 35 33 29 26 23 22 27 31 31 30 29 30 28 26 25 23 24 25 25 31 34 40 45 36 32 28 23 21 15 17 20 19
23 24 26 29 29 30 28 29 31 30 29 27 28 29 28 28 28 26 24 23 23 23 24 27 29 35 34 32 41 33 27 24 18 16 21 15 25 26
22 24 27 28 27 28 28 29 29 29 28 27 27 26 26 25 24 22 21 20 21 21 22 26 30 30 35 39 44 34 34 25 17 15 14 10 19 25
23 24 26 26 25 26 25 25 26 25 25 25 24 24 22 20 19 19 19 20 20 21 20 21 23 35 33 40 44 41 34 28 13 13 12 18 19 24
23 25 23 22 23 25 23 21 22 22 21 22 21 19 17 16 17 18 18 18 19 20 21 24 26 28 29 33 34 42 36 22 17 10 12 14 11 21
25 23 23 22 23 22 21 20 19 19 18 17 16 15 14 15 16 18 18 18 18 19 21 24 21 22 29 33 32 39 38 29 13 13 9 13 14 15
24 22 23 24 24 23 21 19 18 17 15 14 13 13 13 14 15 17 19 18 18 19 19 18 23 21 29 25 33 34 35 35 20 7 8 11 18 17

GFSNE_700_spd_006.txt.gz
Wind_Speed
20 19 19 15 11 9 11 13 10 8 10 8 14 19 18 26 25 23 18 17 18 19 21 23 26 26 24 27 29 30 31 32 32 33 34 35 35 37
21 21 17 17 12 8 11 16 9 15 16 12 13 14 20 25 26 29 30 29 26 22 22 24 27 29 30 30 28 30 33 34 33 33 34 35 35 36
27 23 19 15 12 10 12 10 11 13 14 15 18 19 22 24 24 26 29 31 30 31 30 27 23 25 28 30 31 32 32 33 35 34 33 35 37 37
34 31 20 17 15 14 12 10 12 14 17 20 19 21 21 22 22 27 31 30 29 27 29 27 27 26 24 25 30 33 35 36 35 35 36 35 35 38
36 31 23 20 20 19 15 15 15 17 23 24 20 27 27 23 23 25 26 29 26 28 29 30 30 26 27 28 27 27 29 34 36 37 37 39 38 38
36 32 31 26 24 23 20 18 18 21 25 27 30 25 29 27 27 28 29 30 31 32 30 34 35 31 33 34 34 32 31 32 34 38 38 38 39 43
35 36 32 30 26 25 26 20 26 29 31 34 36 32 33 28 29 30 33 33 32 34 36 38 35 35 33 34 36 35 35 36 35 35 37 40 42 47
33 34 31 33 28 28 24 27 29 31 35 43 43 41 28 27 29 32 34 35 37 34 37 36 33 36 34 34 35 36 36 36 35 35 39 44 46 46
35 31 32 33 30 27 24 29 33 37 37 38 28 27 29 28 30 32 33 37 36 31 32 32 32 36 32 32 29 30 34 35 37 41 44 47 52 56
34 29 32 29 30 28 28 29 33 35 33 31 32 32 30 29 31 34 35 34 30 28 30 31 32 37 32 31 31 33 34 34 36 42 47 53 59 63
32 32 30 28 28 26 26 28 33 30 28 32 33 36 34 32 33 36 33 34 32 30 28 29 33 36 33 32 31 31 31 34 41 49 52 59 66 67
27 26 22 22 20 22 28 30 29 29 30 32 33 34 33 31 32 33 31 29 30 32 30 32 36 35 37 28 30 32 39 41 46 53 49 46 46 47
24 22 18 20 24 29 30 27 29 30 31 34 35 32 30 31 26 28 29 29 33 37 31 32 36 31 30 37 32 40 43 43 52 44 38 36 40 41
17 21 25 25 25 26 27 30 30 31 33 33 31 29 28 23 21 24 29 33 35 35 31 29 28 25 29 35 40 39 43 48 55 44 37 35 34 34
23 22 24 26 26 25 28 29 30 33 33 30 26 25 19 20 24 29 31 30 31 29 28 27 24 25 30 36 41 44 49 49 47 40 36 31 32 35
23 24 23 24 26 28 28 29 30 28 23 22 21 21 23 27 30 31 31 28 28 25 23 25 23 25 31 33 38 40 43 48 44 33 30 24 25 29
22 23 23 23 25 26 27 28 30 30 29 25 23 24 26 27 28 28 29 26 24 23 22 23 23 23 27 30 35 40 41 47 40 31 27 21 21 21
21 21 22 23 24 21 27 28 29 30 30 26 24 24 25 26 27 25 24 21 20 20 22 24 24 25 23 27 33 39 40 49 45 24 21 21 15 19
21 22 23 24 24 24 24 24 26 28 27 25 24 24 24 24 23 21 19 19 18 20 22 23 26 29 33 32 34 37 46 49 48 23 17 13 12 11
22 22 20 20 22 23 23 21 22 22 23 23 23 23 22 20 18 18 17 18 18 18 21 23 25 26 29 32 39 36 41 47 47 28 15 16 11 10
21 19 23 23 22 22 23 22 21 21 21 21 21 19 17 16 16 17 17 17 17 19 21 22 23 26 27 30 32 37 36 44 43 34 18 15 16 10
18 20 25 23 22 20 22 22 23 22 20 19 17 16 14 14 15 16 17 18 17 17 21 21 22 23 27 26 34 34 35 42 40 28 23 15 9 9
18 21 22 22 23 22 21 20 21 20 19 17 15 13 13 14 15 16 19 19 17 17 18 21 20 22 25 28 31 33 31 40 41 31 16 19 14 10

GFSNE_700_spd_009.txt.gz
Wind_Speed
26 21 21 19 16 15 14 9 9 9 5 10 11 11 14 19 20 15 12 12 15 16 19 21 24 25 25 24 26 25 25 26 27 28 30 31 31 33
30 28 27 25 21 16 15 11 11 10 6 6 9 11 12 18 20 22 22 16 15 17 19 22 23 25 25 25 25 25 25 27 28 28 30 32 33 35
29 28 27 28 22 18 16 13 14 11 10 10 12 13 10 14 15 19 20 21 22 20 21 22 19 17 17 22 26 27 27 27 27 29 30 30 33 34
32 29 27 27 22 19 19 14 15 15 15 15 16 19 19 23 22 21 23 21 20 21 20 23 22 22 20 19 22 24 27 28 30 30 31 32 33 35
31 29 29 29 24 21 21 18 18 19 17 19 18 20 23 27 29 30 25 25 23 26 26 27 26 26 28 26 26 27 27 26 29 31 31 33 36 37
33 32 30 27 23 23 22 23 20 21 22 21 26 27 30 28 29 34 29 29 26 28 29 31 31 33 34 31 31 32 32 32 32 34 35 35 37 37
34 34 32 31 24 23 24 24 24 22 22 22 27 30 31 31 27 27 30 31 31 28 30 33 34 34 33 33 32 33 35 35 36 35 35 36 38 39
32 35 35 34 25 24 26 27 24 22 22 26 30 31 29 22 25 29 32 33 32 27 36 33 28 28 27 28 31 33 34 35 35 37 38 38 39 40
33 35 31 25 25 25 28 24 23 23 24 29 32 28 27 26 29 28 31 34 33 31 32 30 26 29 30 30 29 28 30 33 36 37 38 41 43 43
32 33 30 25 27 25 26 26 25 21 24 30 30 27 30 29 31 32 34 34 34 31 29 33 28 32 32 33 30 31 33 35 36 37 37 39 40 43
29 28 27 22 25 21 21 18 19 23 28 30 29 30 31 31 32 34 34 35 33 26 22 30 30 33 33 31 28 29 31 31 31 33 37 41 45 49
23 25 24 24 18 18 19 23 25 26 28 29 31 29 32 32 31 32 33 33 25 23 22 29 30 32 36 30 28 28 30 32 35 37 38 40 43 49
21 20 18 18 18 18 21 26 26 28 28 33 31 31 32 32 31 32 29 22 27 31 33 33 34 33 34 38 32 27 32 34 36 36 38 41 45 49
19 18 14 17 20 21 24 26 26 28 31 32 32 32 29 28 28 26 23 26 31 33 34 33 36 34 34 35 36 31 33 34 36 37 41 45 47 46
18 17 18 20 21 23 24 26 28 29 29 29 28 25 24 24 22 23 25 28 29 29 31 30 32 30 30 32 35 35 37 36 38 42 42 48 48 41
19 21 19 21 24 25 26 26 26 26 25 24 21 19 20 21 23 25 27 27 28 25 25 25 27 27 27 26 29 33 35 42 43 41 46 47 42 34
18 19 21 22 23 24 24 25 23 24 24 22 23 21 19 20 21 23 25 25 24 21 20 21 22 24 25 28 30 31 37 41 37 45 48 45 31 29
19 20 19 20 22 22 21 21 24 24 24 21 19 19 21 23 23 23 22 20 18 18 20 21 21 23 23 19 25 31 35 38 36 47 46 43 25 23
20 21 20 22 22 20 20 22 24 24 24 23 22 21 21 22 21 19 17 17 16 18 19 22 22 25 28 28 25 24 37 40 42 49 49 40 25 21
20 21 22 24 17 15 17 19 21 22 22 21 22 21 22 21 18 16 16 17 18 18 20 21 21 24 27 32 34 31 35 40 42 50 52 39 17 24
22 22 24 21 17 18 20 20 20 20 20 20 20 20 20 18 16 15 16 17 18 20 21 21 21 21 24 27 30 32 33 34 43 51 52 39 13 17
24 23 23 21 20 19 22 21 21 22 20 19 18 17 16 14 14 15 16 18 19 20 20 20 22 22 23 27 31 35 36 34 40 46 44 33 18 16
19 21 24 25 21 20 19 18 20 20 20 19 16 15 13 12 13 15 17 18 20 19 19 19 21 23 25 27 30 33 35 35 40 45 43 27 16 14

GFSNE_700_spd_015.txt.gz
Wind_Speed
15 17 17 16 17 13 12 10 12 10 10 12 10 10 7 6 8 8 6 7 11 15 19 20 21 23 23 23 23 24 25 25 26 28 29 30 31 32
18 20 20 17 14 17 12 10 9 10 11 12 10 9 10 11 9 9 11 12 14 16 19 21 23 23 22 24 25 25 26 25 25 27 30 32 33 34
21 23 22 20 17 17 11 11 10 11 12 11 13 12 13 15 15 15 19 20 22 24 24 25 26 26 27 27 28 29 28 27 27 28 30 31 33 35
22 24 25 23 20 19 15 14 11 13 15 14 13 12 16 17 19 21 25 26 28 29 28 29 31 30 29 29 31 31 32 33 31 30 30 33 35 35
25 26 25 26 22 21 19 15 14 14 16 16 16 17 17 21 25 26 28 28 30 32 32 32 31 32 33 34 34 33 33 34 36 38 37 37 37 38
26 26 25 26 21 21 22 19 18 18 20 20 17 21 23 26 27 30 30 32 30 29 27 29 32 34 35 36 36 36 36 38 37 38 39 41 40 41
26 27 26 24 22 21 23 21 19 20 22 22 23 25 26 30 31 33 33 31 27 29 30 32 34 35 36 37 37 39 39 37 36 35 35 36 37 40
28 28 26 26 21 22 23 22 20 19 22 25 24 28 28 29 31 32 35 34 32 32 34 33 35 35 35 35 36 36 36 37 36 35 34 35 35 36
31 30 26 25 20 23 22 22 21 20 21 25 25 27 30 32 32 34 38 37 37 36 38 39 35 37 36 35 32 32 33 34 36 36 37 38 37 38
28 28 27 27 19 21 24 21 22 22 25 26 28 26 25 29 35 37 36 37 39 37 39 43 37 35 35 32 28 29 31 34 34 35 36 37 38 39
28 28 29 26 22 19 21 23 23 23 29 26 23 25 31 34 38 38 37 40 41 39 38 40 37 35 30 29 30 31 33 34 35 36 35 36 38 40
29 32 28 21 18 19 21 24 22 24 25 25 25 29 32 32 33 35 38 39 40 39 36 38 35 32 36 32 30 29 30 32 33 35 36 36 38 41
30 26 21 17 16 17 18 19 20 22 24 24 28 30 31 32 32 34 35 36 36 35 35 35 35 35 37 39 32 31 31 30 31 33 35 36 39 41
25 19 18 16 15 16 17 18 20 22 25 25 27 29 30 31 32 30 30 31 31 31 31 33 34 35 36 36 37 31 30 29 30 32 35 35 36 37
20 17 16 16 16 16 19 20 20 23 24 24 25 27 28 28 27 28 28 28 28 30 31 32 34 35 34 32 33 32 34 33 31 34 35 36 36 37
17 17 17 17 17 18 19 19 21 22 22 22 23 25 24 24 26 26 25 26 26 27 29 30 30 30 29 29 31 32 33 37 36 36 39 37 36 39
17 17 17 17 17 18 18 18 20 21 21 21 22 23 22 23 25 27 26 27 26 25 24 24 27 28 28 30 33 32 35 35 35 37 38 40 39 41
17 17 17 17 17 17 16 19 21 21 20 20 20 19 20 23 24 25 25 26 25 24 24 25 26 27 27 25 29 30 31 35 35 37 40 44 43 41
19 17 16 17 16 15 17 20 20 20 19 19 18 18 20 22 23 23 23 23 23 23 24 26 28 31 31 29 24 27 34 36 39 39 41 42 47 54
18 16 18 15 15 16 16 17 17 18 19 18 17 18 20 20 21 21 21 20 21 22 24 25 28 30 30 28 27 26 32 36 39 40 44 43 54 53
16 17 16 15 15 15 15 15 16 18 19 18 18 18 19 20 20 18 18 19 19 21 23 24 26 26 26 26 28 30 28 31 37 41 45 52 62 57
16 15 14 14 15 16 17 16 19 19 19 18 18 18 20 20 19 18 18 17 19 21 22 23 24 24 25 26 27 30 30 30 31 35 38 51 57 61
15 15 16 17 18 18 18 21 21 19 18 18 18 18 19 19 18 17 17 17 18 20 22 22 23 24 26 27 28 30 31 33 35 36 34 48 47 47

GFSNE_700_spd_021.txt.gz
Wind_Speed
7 7 9 10 11 12 11 10 10 11 11 11 8 6 7 7 8 10 11 12 11 13 15 17 18 20 21 22 22 20 19 19 19 21 22 23 23 24
10 11 13 14 13 13 13 12 12 13 12 14 14 10 9 11 11 12 13 14 15 17 21 23 23 24 25 26 26 26 25 24 21 20 20 21 21 21
12 14 15 16 16 15 14 13 14 13 15 15 18 17 14 14 15 16 16 17 19 21 24 25 27 28 30 29 28 27 26 25 25 25 24 24 24 23
16 16 17 21 18 18 17 16 16 15 14 14 17 20 20 19 18 20 21 19 21 24 25 27 28 29 29 29 29 28 28 29 29 29 28 27 27 26
20 17 12 25 16 17 19 19 19 18 18 16 17 20 23 23 24 23 23 24 23 25 28 29 29 32 30 29 29 30 31 30 31 31 31 30 29 29
21 22 23 24 19 17 20 21 23 22 22 20 20 20 23 25 27 27 28 26 27 29 29 30 33 35 34 33 34 32 31 32 32 34 34 34 33 32
24 27 26 28 27 20 21 23 25 26 26 25 23 21 22 25 26 27 27 28 31 30 31 32 32 34 34 34 35 35 36 36 36 34 33 33 32 33
27 29 29 31 31 28 24 25 26 28 29 29 26 23 24 24 25 25 27 30 31 31 29 30 34 33 34 36 34 33 33 33 34 35 34 33 31 30
31 30 30 31 34 32 29 27 28 28 30 30 27 23 24 24 26 27 28 28 28 32 34 33 32 33 33 33 33 33 32 31 31 32 33 32 31 31
35 32 31 31 30 25 26 27 27 27 29 29 28 23 27 27 28 27 27 28 30 33 35 36 34 33 31 30 29 30 30 30 31 32 33 33 35 35
39 35 35 32 32 26 25 25 26 27 27 28 29 28 27 27 28 28 27 29 33 33 32 32 32 32 29 25 26 26 28 30 32 33 33 33 33 35
43 39 37 31 32 30 25 23 26 27 27 27 29 28 29 28 27 26 29 31 31 31 31 27 28 30 27 21 21 25 27 27 28 29 28 28 28 30
45 42 39 33 35 30 25 23 23 28 26 26 28 27 25 26 27 27 27 28 29 28 29 28 25 25 27 26 21 23 26 25 26 26 27 26 27 29
47 45 41 37 31 29 28 22 24 26 25 26 26 24 24 26 26 27 25 26 27 25 28 27 25 25 27 26 24 22 25 26 27 28 28 28 28 28
52 47 40 35 28 24 33 26 23 25 26 26 24 24 25 26 26 26 25 25 24 24 26 26 25 23 24 24 26 26 28 28 30 29 29 27 27 28
49 45 40 39 27 36 40 26 25 27 27 24 24 24 25 24 25 25 25 23 23 25 27 27 25 23 24 27 29 30 30 31 31 31 31 29 30 31
47 45 45 25 20 33 29 25 27 27 26 24 25 24 23 23 24 24 23 24 23 22 25 26 23 22 24 28 29 31 31 29 30 31 32 32 30 31
28 23 43 38 32 30 26 27 29 26 24 24 24 24 23 22 24 23 22 23 23 22 22 21 20 21 22 26 30 29 30 30 30 31 31 33 32 32
40 23 24 30 28 27 28 29 27 25 24 25 23 23 21 22 24 21 22 22 22 22 21 20 20 21 23 24 24 27 28 30 32 33 35 36 37 34
33 26 25 30 31 28 29 29 26 25 24 24 23 21 20 21 22 21 21 22 21 19 19 19 20 22 24 27 26 24 26 28 32 35 36 36 37 37
30 34 35 34 31 30 28 26 26 25 23 22 21 20 19 20 21 21 21 20 20 17 17 18 20 21 24 25 26 26 27 29 30 34 35 38 39 36
32 35 35 32 26 26 26 27 25 23 23 21 21 21 20 20 20 21 21 20 19 17 15 17 19 20 23 24 24 26 27 28 30 31 33 35 37 42
34 34 29 28 23 25 26 24 23 22 22 23 22 21 21 21 20 20 20 20 19 16 15 17 19 19 21 23 24 26 28 30 31 32 31 33 32 40